[[{"header":{"parameterUnit":"m.s-1","parameterCategory":1,"la1":30.2991,"la2":30.254,"lo1":-89.0895,"lo2":-89.0444,"dy":0.0017,"dx":0.0017,"nx":28,"ny":28,"refTime":"2025-03-11T21:00:00:Z","depth":0,"parameterNumber":2,"parameterNumberName":"U-component_of_WINDS"},"data":[0,0,0,0,0,0,0,0,0,0,0,0,0,0,0,0,0,0,0,0,0,0,0,0,0,0,0,0,0,0,0,0,0,0,0,0,0,0,0,0,0,0,0,0,0,0,0,0,0,0,0,0,0,0,0,0,0,0,0.8909,0.8909,0,0.8906,0.8906,0.8905,0.889,0.889,0.889,0.8889,0.8886,0.8886,0.8886,0,0,0,0,0,0,0,0,0,0,0,0,0,0.8902,0.8902,0.8909,0.8909,0.8909,0.8906,0.8906,0.8905,0.889,0.889,0.8889,0.8889,0.8886,0.8886,0.8886,0,0,0,0,0,0,0,0,0,0,0,0,0,0.8902,0.8902,0.8909,0.8901,0.89,0.8906,0.8906,0.8905,0.889,0.889,0.8889,0.8889,0.8885,0.8886,0.8886,0.8899,0,0,0.8887,0.8887,0,0,0,0,0,0,0,0,0.8902,0.8903,0.8902,0.8901,0.89,0.8898,0.8902,0.8903,0.8891,0.8894,0.8889,0.8889,0.889,0.889,0.8891,0.8899,0.8899,0.8887,0.8888,0.8888,0.8888,0,0,0,0,0,0,0,0.8902,0.8903,0.8907,0.8902,0.8901,0.8897,0.8897,0.8902,0.8895,0.8894,0.8893,0.8892,0.889,0.889,0.889,0.8899,0.8887,0.8888,0.8888,0.8888,0.8919,0.8919,0,0,0,0,0,0,0.8903,0.8903,0.8908,0.8907,0.89,0.8898,0.8897,0.8899,0.8895,0.8894,0.8893,0.8892,0.889,0.889,0.889,0.8906,0.8888,0.8888,0.8888,0.8918,0.8919,0.8919,0,0,0,0,0,0,0.8903,0.8904,0.8908,0.8905,0.8905,0.8899,0.8901,0.8899,0.89,0.8894,0.8893,0.8895,0.889,0.889,0.8897,0.8905,0.8888,0.8889,0.8917,0.8918,0.8919,0.8936,0,0,0,0,0,0,0.8903,0.8904,0.8909,0.8905,0.8905,0.8915,0.8901,0.89,0.8901,0.8899,0.8896,0.8895,0.8889,0.8897,0.8898,0.8905,0.8889,0.8917,0.8918,0.8919,0.8935,0.8938,0.894,0,0,0,0,0,0.8903,0.8914,0.8909,0.891,0.8911,0.8915,0.8915,0.8909,0.8901,0.8906,0.8903,0.8895,0.8904,0.8898,0.8899,0.8907,0.8916,0.8917,0.8919,0.8934,0.8937,0.894,0,0,0,0,0,0,0.8918,0.8913,0.8908,0.8917,0.8917,0.8913,0.8918,0.8912,0.8913,0.8912,0.8903,0.8903,0.8912,0.891,0.8903,0.8919,0.8909,0.891,0.892,0.8923,0.8926,0.8926,0.8889,0,0,0,0,0,0.8923,0.8926,0.8922,0.8931,0.8931,0.8925,0.8926,0.8921,0.892,0.892,0.8917,0.8916,0.8919,0.8921,0.8923,0.8935,0.8934,0.8941,0.8943,0.8945,0.8947,0.8953,0.8956,0.8924,0.8924,0.8924,0,0,0.8932,0.8929,0.8932,0.8934,0.8933,0.8937,0.8925,0.8929,0.8933,0.8921,0.8928,0.8926,0.8924,0.8934,0.8938,0.8933,0.8956,0.8947,0.8949,0.8949,0.8955,0.8958,0.8961,0.8925,0.8925,0.8924,0,0,0.8951,0.8949,0.8957,0.8956,0.8955,0.8951,0.8953,0.895,0.8948,0.8955,0.8947,0.895,0.8955,0.8955,0.8955,0.8975,0.8968,0.8976,0.8989,0.8996,0.8998,0.9001,0.9008,0.9011,0.8978,0.8978,0.8978,0,0.8962,0.8969,0.8962,0.8967,0.8969,0.8958,0.8966,0.8966,0.8965,0.8966,0.896,0.8967,0.8965,0.8975,0.898,0.8981,0.8983,0.8977,0.8999,0.9001,0.9003,0.901,0.9013,0.8979,0.8979,0.8979,0.8979,0,0.8983,0.8988,0.8994,0.8994,0.8996,0.9003,0.8997,0.9,0.8995,0.8992,0.8999,0.8997,0.8999,0.9001,0.8996,0.901,0.9007,0.9,0.8989,0.9007,0.9013,0.9016,0.898,0.898,0.898,0.8979,0,0,0.9011,0.9008,0.901,0.9011,0.9009,0.9013,0.9019,0.9021,0.9024,0.9024,0.903,0.9035,0.9028,0.9029,0.9024,0.9029,0.9046,0.9022,0.9022,0.9026,0.9062,0.9068,0.9071,0.9042,0.9042,0.9042,0.9062,0,0.903,0.9041,0.9035,0.9047,0.9051,0.9042,0.9048,0.9047,0.9045,0.9048,0.9045,0.9049,0.904,0.9041,0.9046,0.9043,0.9053,0.9041,0.9047,0.9047,0.9047,0.9074,0.908,0.9099,0.9065,0.9065,0.9066,0,0.9052,0.9054,0.9067,0.9065,0.9066,0.9072,0.9074,0.9077,0.9077,0.9075,0.9076,0.907,0.9076,0.9066,0.9075,0.9067,0.9069,0.9068,0.9069,0.9069,0.9057,0.9075,0.9105,0.9108,0.9069,0.9069,0.9069,0,0.9072,0.9077,0.9086,0.9086,0.9084,0.9088,0.9088,0.9087,0.9089,0.9091,0.9092,0.9094,0.9096,0.9098,0.9093,0.9085,0.9103,0.9092,0.9101,0.9101,0.9105,0.9105,0.9135,0.9106,0.9106,0.9106,0.9106,0,0.9093,0.9101,0.9095,0.91,0.9109,0.9102,0.9111,0.911,0.9109,0.9114,0.9106,0.9111,0.9103,0.9108,0.9104,0.9112,0.9113,0.9111,0.911,0.9112,0.9112,0.9113,0.9112,0.9107,0.9107,0.9106,0.9106,0,0.9117,0.9112,0.9121,0.9119,0.9118,0.9125,0.9123,0.9128,0.9125,0.9131,0.9132,0.9128,0.9132,0.9127,0.9131,0.9129,0.914,0.9137,0.914,0.9139,0.9149,0.9149,0.9181,0.9185,0.9154,0.9154,0.9154,0,0.913,0.9136,0.9135,0.9138,0.9138,0.9142,0.9144,0.9138,0.9141,0.9142,0.9146,0.915,0.9153,0.9161,0.9158,0.9161,0.9158,0.9169,0.9158,0.916,0.9158,0.9158,0.9159,0.9171,0.9172,0.9172,0.9172,0,0.9156,0.9153,0.9157,0.916,0.9163,0.9165,0.9166,0.9169,0.9163,0.9166,0.9171,0.9173,0.9177,0.9181,0.9184,0.9183,0.9177,0.9176,0.9178,0.918,0.9182,0.9181,0.9147,0.9175,0.9175,0.9175,0.9174,0.9174,0.9175,0.918,0.918,0.9184,0.9185,0.9186,0.9191,0.9189,0.9193,0.9196,0.9192,0.9198,0.9198,0.9201,0.9201,0.9206,0.9201,0.9205,0.9205,0.9206,0.9208,0.9181,0.9206,0.9206,0.9206,0.9206,0.9206,0,0.92,0.92,0.9204,0.9206,0.9209,0.9204,0.9205,0.9208,0.9214,0.9214,0.9217,0.9223,0.9227,0.9225,0.9229,0.9233,0.923,0.9234,0.9233,0.9234,0.9212,0.921,0.9236,0.9236,0.9236,0.9236,0.9236,0.9236,0.9213,0.9222,0.922,0.9229,0.9229,0.9234,0.9236,0.9237,0.9238,0.9245,0.9248,0.9247,0.9247,0.925,0.9254,0.9253,0.9255,0.926,0.9258,0.9238,0.9235,0.9232,0.923,0.926,0.926,0.9279,0.928,0.928]},{"header":{"parameterUnit":"m.s-1","parameterCategory":1,"la1":30.2991,"la2":30.254,"lo1":-89.0895,"lo2":-89.0444,"dy":0.0017,"dx":0.0017,"nx":28,"ny":28,"refTime":"2025-03-11T21:00:00:Z","depth":0,"parameterNumber":3,"parameterNumberName":"V-component_of_WINDS"},"data":[0,0,0,0,0,0,0,0,0,0,0,0,0,0,0,0,0,0,0,0,0,0,0,0,0,0,0,0,0,0,0,0,0,0,0,0,0,0,0,0,0,0,0,0,0,0,0,0,0,0,0,0,0,0,0,0,0,0,-0.5638,-0.5639,0,-0.5678,-0.5678,-0.5679,-0.567,-0.5669,-0.5668,-0.5668,-0.5708,-0.571,-0.5711,0,0,0,0,0,0,0,0,0,0,0,0,0,-0.5555,-0.5557,-0.5638,-0.5639,-0.5639,-0.5678,-0.5678,-0.5679,-0.567,-0.5669,-0.5668,-0.5667,-0.5707,-0.5709,-0.5711,0,0,0,0,0,0,0,0,0,0,0,0,0,-0.5593,-0.5557,-0.5638,-0.5639,-0.564,-0.5677,-0.5678,-0.5679,-0.567,-0.5669,-0.5668,-0.5667,-0.5707,-0.5709,-0.5712,-0.575,0,0,-0.572,-0.5721,0,0,0,0,0,0,0,0,-0.5591,-0.5596,-0.5639,-0.5639,-0.564,-0.5668,-0.5664,-0.5703,-0.567,-0.5659,-0.5668,-0.5666,-0.5695,-0.5699,-0.5709,-0.5752,-0.5754,-0.572,-0.5722,-0.5723,-0.5724,0,0,0,0,0,0,0,-0.5588,-0.5594,-0.5654,-0.5639,-0.564,-0.5638,-0.5642,-0.5671,-0.5683,-0.566,-0.5659,-0.5664,-0.5695,-0.5706,-0.571,-0.5755,-0.572,-0.5722,-0.5724,-0.5725,-0.5833,-0.5835,0,0,0,0,0,0,-0.5585,-0.5592,-0.5652,-0.5655,-0.5612,-0.5641,-0.5645,-0.566,-0.5682,-0.5685,-0.5665,-0.5663,-0.5702,-0.5706,-0.5711,-0.5759,-0.5723,-0.5725,-0.5727,-0.5832,-0.5834,-0.5835,0,0,0,0,0,0,-0.5583,-0.559,-0.5651,-0.5623,-0.5631,-0.5643,-0.566,-0.5661,-0.5672,-0.5686,-0.5688,-0.5673,-0.5701,-0.5707,-0.5741,-0.576,-0.5726,-0.5729,-0.5831,-0.5833,-0.5834,-0.5854,0,0,0,0,0,0,-0.5581,-0.559,-0.5604,-0.5624,-0.5632,-0.568,-0.5661,-0.5663,-0.5677,-0.5675,-0.5695,-0.5697,-0.5701,-0.5737,-0.5744,-0.5763,-0.5731,-0.5829,-0.5831,-0.5834,-0.5852,-0.5857,-0.5861,0,0,0,0,0,-0.5578,-0.5608,-0.5605,-0.5613,-0.5651,-0.5681,-0.5686,-0.569,-0.5678,-0.5693,-0.5703,-0.5697,-0.5757,-0.5741,-0.5748,-0.5768,-0.5828,-0.5831,-0.5834,-0.585,-0.5856,-0.586,0,0,0,0,0,0,-0.5591,-0.5611,-0.5608,-0.5645,-0.5662,-0.568,-0.5699,-0.5696,-0.5716,-0.5714,-0.5717,-0.5722,-0.5757,-0.5766,-0.5747,-0.5808,-0.5791,-0.5795,-0.5801,-0.5806,-0.581,-0.5808,-0.5733,0,0,0,0,0,-0.5598,-0.5621,-0.5637,-0.5668,-0.5677,-0.5686,-0.57,-0.5701,-0.5718,-0.5725,-0.5737,-0.5754,-0.5777,-0.5792,-0.5813,-0.5853,-0.5858,-0.5871,-0.5875,-0.5879,-0.5883,-0.5905,-0.5912,-0.5845,-0.5844,-0.5844,0,0,-0.5613,-0.5626,-0.5641,-0.5671,-0.5684,-0.5708,-0.5692,-0.5718,-0.5736,-0.5729,-0.5762,-0.5772,-0.5791,-0.5828,-0.5845,-0.5837,-0.5902,-0.5882,-0.5885,-0.5887,-0.5909,-0.5915,-0.5921,-0.5846,-0.5846,-0.5846,0,0,-0.5652,-0.5665,-0.5693,-0.5707,-0.5727,-0.5733,-0.574,-0.5759,-0.5765,-0.5798,-0.5794,-0.5815,-0.5854,-0.5868,-0.588,-0.5927,-0.5923,-0.5934,-0.5956,-0.5979,-0.5984,-0.5989,-0.6006,-0.6012,-0.5937,-0.5937,-0.5937,0,-0.5669,-0.5705,-0.5708,-0.5734,-0.5748,-0.5744,-0.5773,-0.5785,-0.5811,-0.5821,-0.5812,-0.5861,-0.5874,-0.5915,-0.5926,-0.5936,-0.5944,-0.5932,-0.5983,-0.5988,-0.5992,-0.6009,-0.6016,-0.5939,-0.5939,-0.5938,-0.5938,0,-0.5724,-0.5749,-0.5769,-0.5795,-0.5811,-0.5839,-0.5847,-0.5863,-0.5863,-0.5871,-0.5905,-0.592,-0.5945,-0.5955,-0.5955,-0.5996,-0.5991,-0.5982,-0.5965,-0.6,-0.6016,-0.6022,-0.5941,-0.594,-0.594,-0.5939,0,0,-0.5773,-0.5801,-0.5808,-0.5821,-0.5843,-0.5862,-0.589,-0.5915,-0.5929,-0.5947,-0.5971,-0.6004,-0.5997,-0.6011,-0.6013,-0.6032,-0.6069,-0.6021,-0.6022,-0.6031,-0.6117,-0.6124,-0.6132,-0.6066,-0.6067,-0.6068,-0.6116,0,-0.5816,-0.5865,-0.5869,-0.5913,-0.5937,-0.5933,-0.5957,-0.5973,-0.5981,-0.6003,-0.6011,-0.6036,-0.6023,-0.6032,-0.6051,-0.6061,-0.6087,-0.6057,-0.6089,-0.609,-0.6086,-0.614,-0.6147,-0.6191,-0.6122,-0.6123,-0.6124,0,-0.5872,-0.5893,-0.5939,-0.5959,-0.5969,-0.5991,-0.6015,-0.6035,-0.6054,-0.6058,-0.6075,-0.6074,-0.6103,-0.6084,-0.6125,-0.6105,-0.6118,-0.6125,-0.6127,-0.6131,-0.611,-0.6146,-0.6205,-0.6212,-0.6133,-0.6133,-0.6132,0,-0.5905,-0.5944,-0.5977,-0.5988,-0.6011,-0.6027,-0.6037,-0.6055,-0.607,-0.6091,-0.6101,-0.6124,-0.6138,-0.6156,-0.6162,-0.6148,-0.6203,-0.6185,-0.6208,-0.6208,-0.6221,-0.622,-0.6284,-0.6227,-0.6227,-0.6227,-0.6227,0,-0.5952,-0.5982,-0.5992,-0.6013,-0.6046,-0.605,-0.6083,-0.6092,-0.6108,-0.6131,-0.6129,-0.615,-0.6156,-0.6179,-0.6184,-0.6217,-0.6223,-0.6228,-0.6229,-0.6229,-0.6228,-0.6238,-0.6236,-0.6229,-0.6229,-0.6228,-0.6228,0,-0.5995,-0.6003,-0.6039,-0.6059,-0.6065,-0.6088,-0.6105,-0.6125,-0.6133,-0.6162,-0.6169,-0.6181,-0.6207,-0.6215,-0.6247,-0.625,-0.629,-0.6288,-0.6284,-0.6284,-0.6308,-0.6306,-0.6381,-0.6392,-0.6327,-0.6328,-0.6329,0,-0.6025,-0.6048,-0.607,-0.6085,-0.6097,-0.6121,-0.6137,-0.6142,-0.6158,-0.6182,-0.62,-0.6226,-0.6248,-0.6291,-0.6302,-0.6327,-0.6326,-0.6351,-0.633,-0.6329,-0.6328,-0.6327,-0.633,-0.6355,-0.6355,-0.6356,-0.6356,0,-0.6079,-0.6082,-0.6105,-0.6129,-0.6148,-0.6168,-0.6186,-0.6199,-0.6207,-0.6226,-0.6253,-0.627,-0.6303,-0.633,-0.6355,-0.6366,-0.6363,-0.6363,-0.637,-0.637,-0.6368,-0.6371,-0.6296,-0.6361,-0.6361,-0.6361,-0.636,-0.636,-0.6117,-0.6137,-0.6157,-0.6182,-0.6197,-0.6215,-0.6235,-0.6245,-0.6268,-0.6296,-0.6298,-0.6328,-0.6347,-0.6381,-0.6393,-0.6417,-0.641,-0.6419,-0.6422,-0.6425,-0.6428,-0.6363,-0.6421,-0.6421,-0.6421,-0.6421,-0.6421,0,-0.6172,-0.6184,-0.6208,-0.6234,-0.6255,-0.625,-0.6271,-0.6288,-0.6315,-0.6333,-0.6354,-0.6387,-0.6413,-0.6427,-0.6453,-0.6469,-0.6469,-0.6476,-0.6475,-0.6478,-0.6432,-0.6424,-0.6476,-0.6476,-0.6476,-0.6476,-0.6476,-0.6476,-0.6203,-0.6237,-0.6243,-0.6285,-0.6297,-0.6327,-0.6339,-0.6356,-0.637,-0.6407,-0.6428,-0.6437,-0.6454,-0.6481,-0.6505,-0.6509,-0.6519,-0.6528,-0.653,-0.6487,-0.6481,-0.6476,-0.6469,-0.653,-0.653,-0.6575,-0.6576,-0.6576]}]]